This is the latest recevied weather packets stored in our database for station/object KU9TRY. If no packets are shown the sender has not sent any weather packets the latest 10 day(s).
| Time | Temp. | Humidity | Pressure | Rain* | Wind** | Luminosity | Snow |
|---|---|---|---|---|---|---|---|
| 1778372155 | 20.56° C | 62% | 1011.8 hPa | 0 mm | - | 14 W/m² | - |
| 1778371854 | 20.56° C | 61% | 1011.6 hPa | 0 mm | - | 18 W/m² | - |
| 1778371548 | 21.11° C | 60% | 1011.6 hPa | 0 mm | - | 21 W/m² | - |
| 1778371245 | 21.11° C | 59% | 1011.7 hPa | 0 mm | - | 24 W/m² | - |
| 1778370941 | 21.11° C | 60% | 1011.5 hPa | 0 mm | - | 26 W/m² | - |
| 1778370638 | 21.11° C | 59% | 1011.4 hPa | 0 mm | - | 29 W/m² | - |
| 1778370334 | 21.11° C | 58% | 1011.2 hPa | 0 mm | - | 32 W/m² | - |
| 1778370033 | 21.11° C | 59% | 1011.4 hPa | 0 mm | - | 37 W/m² | - |
| 1778369730 | 21.11° C | 59% | 1011.2 hPa | 0 mm | - | 39 W/m² | - |
| 1778369427 | 21.11° C | 59% | 1011.4 hPa | 0 mm | - | 34 W/m² | - |
| 1778369124 | 21.11° C | 59% | 1011 hPa | 0 mm | - | 41 W/m² | - |
| 1778368820 | 21.67° C | 60% | 1011.4 hPa | 0 mm | - | 46 W/m² | - |
| 1778368516 | 21.67° C | 60% | 1011.2 hPa | 0 mm | - | 44 W/m² | - |
| 1778368215 | 21.67° C | 59% | 1011.1 hPa | 0 mm | - | 44 W/m² | - |
| 1778367911 | 21.11° C | 59% | 1011.4 hPa | 0 mm | - | 43 W/m² | - |
| 1778367608 | 21.67° C | 60% | 1011.2 hPa | 0 mm | - | 42 W/m² | - |
| 1778367303 | 21.67° C | 61% | 1011.1 hPa | 0 mm | - | 40 W/m² | - |
| 1778366999 | 21.67° C | 61% | 1011.1 hPa | 0 mm | - | 48 W/m² | - |
| 1778366695 | 21.67° C | 61% | 1011.2 hPa | 0 mm | - | 50 W/m² | - |
| 1778366392 | 21.67° C | 58% | 1011 hPa | 0 mm | - | 52 W/m² | - |
| 1778366089 | 21.67° C | 62% | 1011.2 hPa | 0 mm | - | 52 W/m² | - |
| 1778365786 | 21.67° C | 59% | 1011.1 hPa | 0 mm | - | 44 W/m² | - |
| 1778365481 | 22.22° C | 60% | 1011.2 hPa | 0 mm | - | 47 W/m² | - |
| 1778365177 | 22.22° C | 59% | 1011 hPa | 0 mm | - | 47 W/m² | - |
| 1778364874 | 22.78° C | 57% | 1011 hPa | 0 mm | - | 52 W/m² | - |
* Rain latest hour (hover to see other rain measurements)
** Current wind speed in m/s (hover to see current wind gust speed)